Time,TemperatureF,DewpointF,PressureIn,WindDirection,WindDirectionDegrees,WindSpeedMPH,WindSpeedGustMPH,Humidity,HourlyPrecipIn,Conditions,Clouds,dailyrainin,SoftwareType,DateUTC
2013-11-16 00:01:00,48.6,45.5,30.00,SSE,165,2.0,4.0,89,0.00,,,0.00,WUHU216DAVISVP2,2013-11-16 06:01:00,
2013-11-16 00:06:00,48.5,45.4,30.00,SSE,162,0.0,4.0,89,0.00,,,0.00,WUHU216DAVISVP2,2013-11-16 06:06:00,
2013-11-16 00:11:00,48.3,45.2,30.00,SE,131,3.0,3.0,89,0.00,,,0.00,WUHU216DAVISVP2,2013-11-16 06:11:00,
2013-11-16 00:16:00,48.3,45.5,29.99,SSW,194,2.0,3.0,90,0.00,,,0.00,WUHU216DAVISVP2,2013-11-16 06:16:00,
2013-11-16 00:21:00,48.2,45.4,30.00,SSE,154,1.0,3.0,90,0.00,,,0.00,WUHU216DAVISVP2,2013-11-16 06:21:00,
2013-11-16 00:26:00,48.1,45.3,29.99,SE,128,1.0,3.0,90,0.00,,,0.00,WUHU216DAVISVP2,2013-11-16 06:26:00,
2013-11-16 00:31:00,48.0,45.2,29.99,SSE,160,2.0,3.0,90,0.00,,,0.00,WUHU216DAVISVP2,2013-11-16 06:31:00,
2013-11-16 00:36:00,47.9,45.4,29.99,SSE,148,1.0,3.0,91,0.00,,,0.00,WUHU216DAVISVP2,2013-11-16 06:36:00,
2013-11-16 00:41:00,47.9,45.4,29.99,SSE,159,1.0,3.0,91,0.00,,,0.00,WUHU216DAVISVP2,2013-11-16 06:41:00,
2013-11-16 00:46:00,47.8,45.3,29.99,SW,222,1.0,3.0,91,0.00,,,0.00,WUHU216DAVISVP2,2013-11-16 06:46:00,
2013-11-16 00:51:00,47.8,45.5,29.98,SSE,168,2.0,3.0,92,0.00,,,0.00,WUHU216DAVISVP2,2013-11-16 06:51:00,
2013-11-16 00:56:00,48.0,45.7,29.98,SSE,148,1.0,4.0,92,0.00,,,0.00,WUHU216DAVISVP2,2013-11-16 06:56:00,
2013-11-16 01:01:00,48.2,46.0,29.98,SE,146,1.0,4.0,92,0.00,,,0.00,WUHU216DAVISVP2,2013-11-16 07:01:00,
2013-11-16 01:06:00,48.3,46.1,29.98,SE,146,1.0,2.0,92,0.00,,,0.00,WUHU216DAVISVP2,2013-11-16 07:06:00,
2013-11-16 01:11:00,48.2,45.9,29.98,SSE,148,1.0,2.0,92,0.00,,,0.00,WUHU216DAVISVP2,2013-11-16 07:11:00,
2013-11-16 01:16:00,48.3,46.0,29.98,SE,145,1.0,3.0,92,0.00,,,0.00,WUHU216DAVISVP2,2013-11-16 07:16:00,
2013-11-16 01:21:00,48.3,46.0,29.98,SW,224,1.0,3.0,92,0.00,,,0.00,WUHU216DAVISVP2,2013-11-16 07:21:00,
2013-11-16 01:26:00,48.4,46.1,29.98,SSE,148,3.0,6.0,92,0.00,,,0.00,WUHU216DAVISVP2,2013-11-16 07:26:00,
2013-11-16 01:31:00,48.3,46.0,29.99,SE,134,3.0,6.0,92,0.00,,,0.00,WUHU216DAVISVP2,2013-11-16 07:31:00,
2013-11-16 01:36:00,48.4,46.4,29.99,SSE,156,4.0,5.0,93,0.00,,,0.00,WUHU216DAVISVP2,2013-11-16 07:36:00,
2013-11-16 01:41:00,48.4,46.4,29.99,SSW,204,5.0,6.0,93,0.00,,,0.00,WUHU216DAVISVP2,2013-11-16 07:41:00,
2013-11-16 01:46:00,48.6,46.6,29.99,SSW,200,3.0,6.0,93,0.00,,,0.00,WUHU216DAVISVP2,2013-11-16 07:46:00,
2013-11-16 01:51:00,48.7,46.7,29.98,SSE,149,3.0,8.0,93,0.00,,,0.00,WUHU216DAVISVP2,2013-11-16 07:51:00,
2013-11-16 01:56:00,48.9,47.0,29.98,SW,221,2.0,8.0,93,0.00,,,0.00,WUHU216DAVISVP2,2013-11-16 07:56:00,
2013-11-16 02:01:00,49.1,47.2,29.98,SSE,164,3.0,7.0,93,0.00,,,0.00,WUHU216DAVISVP2,2013-11-16 08:01:00,
2013-11-16 02:06:00,49.3,47.4,29.98,South,191,2.0,8.0,93,0.00,,,0.00,WUHU216DAVISVP2,2013-11-16 08:06:00,
2013-11-16 02:11:00,49.4,47.4,29.98,SSE,157,3.0,8.0,93,0.00,,,0.00,WUHU216DAVISVP2,2013-11-16 08:11:00,
2013-11-16 02:16:00,49.4,47.4,29.97,South,181,3.0,8.0,93,0.00,,,0.00,WUHU216DAVISVP2,2013-11-16 08:16:00,
2013-11-16 02:21:00,49.4,47.4,29.97,South,169,1.0,7.0,93,0.00,,,0.00,WUHU216DAVISVP2,2013-11-16 08:21:00,
2013-11-16 02:26:00,49.4,47.4,29.96,East,90,1.0,7.0,93,0.00,,,0.00,WUHU216DAVISVP2,2013-11-16 08:26:00,
2013-11-16 02:31:00,49.3,47.3,29.96,South,191,2.0,5.0,93,0.00,,,0.00,WUHU216DAVISVP2,2013-11-16 08:31:00,
2013-11-16 02:36:00,49.4,47.4,29.96,ESE,110,1.0,4.0,93,0.00,,,0.00,WUHU216DAVISVP2,2013-11-16 08:36:00,
2013-11-16 02:41:00,49.4,47.4,29.96,SSW,203,0.0,5.0,93,0.00,,,0.00,WUHU216DAVISVP2,2013-11-16 08:41:00,
2013-11-16 02:46:00,49.4,47.4,29.96,South,170,3.0,5.0,93,0.00,,,0.00,WUHU216DAVISVP2,2013-11-16 08:46:00,
2013-11-16 02:51:00,49.5,47.8,29.96,SE,139,0.0,7.0,94,0.00,,,0.00,WUHU216DAVISVP2,2013-11-16 08:51:00,
2013-11-16 02:56:00,49.5,47.8,29.96,SSW,201,0.0,7.0,94,0.00,,,0.00,WUHU216DAVISVP2,2013-11-16 08:56:00,
2013-11-16 03:01:00,49.5,47.8,29.97,SSE,165,1.0,4.0,94,0.00,,,0.00,WUHU216DAVISVP2,2013-11-16 09:01:00,
2013-11-16 03:06:00,49.5,47.8,29.97,SSE,158,0.0,5.0,94,0.00,,,0.00,WUHU216DAVISVP2,2013-11-16 09:06:00,
2013-11-16 03:11:00,49.5,47.8,29.97,SSW,207,2.0,5.0,94,0.00,,,0.00,WUHU216DAVISVP2,2013-11-16 09:11:00,
2013-11-16 03:16:00,49.6,47.9,29.97,SW,228,2.0,6.0,94,0.00,,,0.00,WUHU216DAVISVP2,2013-11-16 09:16:00,
2013-11-16 03:21:00,49.8,48.1,29.96,South,174,2.0,6.0,94,0.00,,,0.00,WUHU216DAVISVP2,2013-11-16 09:21:00,
2013-11-16 03:26:00,49.9,48.2,29.96,South,184,3.0,7.0,94,0.00,,,0.00,WUHU216DAVISVP2,2013-11-16 09:26:00,
2013-11-16 03:31:00,50.1,48.4,29.97,SSW,203,5.0,11.0,94,0.00,,,0.00,WUHU216DAVISVP2,2013-11-16 09:31:00,
2013-11-16 03:36:00,50.3,48.6,29.97,SW,214,3.0,11.0,94,0.00,,,0.00,WUHU216DAVISVP2,2013-11-16 09:36:00,
2013-11-16 03:41:00,50.4,48.7,29.97,SSE,165,2.0,9.0,94,0.00,,,0.00,WUHU216DAVISVP2,2013-11-16 09:41:00,
2013-11-16 03:46:00,50.5,48.8,29.97,ESE,117,2.0,5.0,94,0.00,,,0.00,WUHU216DAVISVP2,2013-11-16 09:46:00,
2013-11-16 03:51:00,50.5,48.8,29.97,SE,142,2.0,7.0,94,0.00,,,0.00,WUHU216DAVISVP2,2013-11-16 09:51:00,
2013-11-16 03:56:00,50.5,48.8,29.97,SSE,149,2.0,7.0,94,0.00,,,0.00,WUHU216DAVISVP2,2013-11-16 09:56:00,
2013-11-16 04:01:00,50.6,48.9,29.97,South,180,5.0,7.0,94,0.00,,,0.00,WUHU216DAVISVP2,2013-11-16 10:01:00,
2013-11-16 04:06:00,50.6,48.9,29.97,South,172,1.0,7.0,94,0.00,,,0.00,WUHU216DAVISVP2,2013-11-16 10:06:00,
2013-11-16 04:11:00,50.7,49.0,29.96,SE,141,1.0,7.0,94,0.00,,,0.00,WUHU216DAVISVP2,2013-11-16 10:11:00,
2013-11-16 04:16:00,50.7,48.7,29.96,South,180,3.0,7.0,93,0.00,,,0.00,WUHU216DAVISVP2,2013-11-16 10:16:00,
2013-11-16 04:21:00,50.8,49.1,29.97,South,174,8.0,10.0,94,0.00,,,0.00,WUHU216DAVISVP2,2013-11-16 10:21:00,
2013-11-16 04:26:00,50.9,48.9,29.97,SSE,158,1.0,10.0,93,0.00,,,0.00,WUHU216DAVISVP2,2013-11-16 10:26:00,
2013-11-16 04:31:00,50.9,48.9,29.97,South,176,7.0,9.0,93,0.00,,,0.00,WUHU216DAVISVP2,2013-11-16 10:31:00,
2013-11-16 04:36:00,51.0,49.0,29.97,SSW,202,3.0,9.0,93,0.00,,,0.00,WUHU216DAVISVP2,2013-11-16 10:36:00,
2013-11-16 04:41:00,51.0,49.0,29.97,South,189,4.0,7.0,93,0.00,,,0.00,WUHU216DAVISVP2,2013-11-16 10:41:00,
2013-11-16 04:46:00,51.0,49.0,29.96,SSE,165,1.0,7.0,93,0.00,,,0.00,WUHU216DAVISVP2,2013-11-16 10:46:00,
2013-11-16 04:51:00,51.1,49.1,29.97,SSE,148,9.0,9.0,93,0.00,,,0.00,WUHU216DAVISVP2,2013-11-16 10:51:00,
2013-11-16 04:56:00,51.2,49.2,29.97,South,184,2.0,11.0,93,0.00,,,0.00,WUHU216DAVISVP2,2013-11-16 10:56:00,
2013-11-16 05:01:00,51.3,49.3,29.97,SSE,166,5.0,11.0,93,0.00,,,0.00,WUHU216DAVISVP2,2013-11-16 11:01:00,
2013-11-16 05:06:00,51.4,49.4,29.96,SSE,165,2.0,8.0,93,0.00,,,0.00,WUHU216DAVISVP2,2013-11-16 11:06:00,
2013-11-16 05:11:00,51.4,49.4,29.96,SSE,148,0.0,7.0,93,0.00,,,0.00,WUHU216DAVISVP2,2013-11-16 11:11:00,
2013-11-16 05:16:00,51.4,49.4,29.96,SSE,165,5.0,7.0,93,0.00,,,0.00,WUHU216DAVISVP2,2013-11-16 11:16:00,
2013-11-16 05:21:00,51.5,49.5,29.96,SSW,195,5.0,7.0,93,0.00,,,0.00,WUHU216DAVISVP2,2013-11-16 11:21:00,
2013-11-16 05:26:00,51.6,49.6,29.96,SSE,155,3.0,7.0,93,0.00,,,0.00,WUHU216DAVISVP2,2013-11-16 11:26:00,
2013-11-16 05:31:00,51.6,49.6,29.95,South,172,4.0,7.0,93,0.00,,,0.00,WUHU216DAVISVP2,2013-11-16 11:31:00,
2013-11-16 05:36:00,51.7,49.7,29.96,SW,221,4.0,7.0,93,0.00,,,0.00,WUHU216DAVISVP2,2013-11-16 11:36:00,
2013-11-16 05:41:00,51.8,49.8,29.96,SSE,158,4.0,9.0,93,0.00,,,0.00,WUHU216DAVISVP2,2013-11-16 11:41:00,
2013-11-16 05:46:00,51.9,49.9,29.96,South,179,3.0,9.0,93,0.00,,,0.00,WUHU216DAVISVP2,2013-11-16 11:46:00,
2013-11-16 05:51:00,51.9,49.9,29.96,SSE,150,5.0,10.0,93,0.00,,,0.00,WUHU216DAVISVP2,2013-11-16 11:51:00,
2013-11-16 05:56:00,52.0,50.0,29.95,South,191,4.0,10.0,93,0.00,,,0.00,WUHU216DAVISVP2,2013-11-16 11:56:00,
2013-11-16 06:01:00,52.0,49.7,29.95,South,176,3.0,8.0,92,0.00,,,0.00,WUHU216DAVISVP2,2013-11-16 12:01:00,
2013-11-16 06:06:00,52.0,49.7,29.96,South,191,4.0,8.0,92,0.00,,,0.00,WUHU216DAVISVP2,2013-11-16 12:06:00,
2013-11-16 06:11:00,52.1,49.8,29.97,SSW,199,4.0,7.0,92,0.00,,,0.00,WUHU216DAVISVP2,2013-11-16 12:11:00,
2013-11-16 06:16:00,52.1,49.8,29.96,South,174,4.0,9.0,92,0.00,,,0.00,WUHU216DAVISVP2,2013-11-16 12:16:00,
2013-11-16 06:21:00,52.1,49.8,29.96,SSW,200,1.0,9.0,92,0.00,,,0.00,WUHU216DAVISVP2,2013-11-16 12:21:00,
2013-11-16 06:26:00,52.1,49.8,29.96,South,169,4.0,7.0,92,0.00,,,0.00,WUHU216DAVISVP2,2013-11-16 12:26:00,
2013-11-16 06:31:00,52.1,49.8,29.95,SSW,198,2.0,6.0,92,0.00,,,0.00,WUHU216DAVISVP2,2013-11-16 12:31:00,
2013-11-16 06:36:00,52.2,49.9,29.96,SSW,195,5.0,6.0,92,0.00,,,0.00,WUHU216DAVISVP2,2013-11-16 12:36:00,
2013-11-16 06:41:00,52.2,49.9,29.96,SSE,160,7.0,7.0,92,0.00,,,0.00,WUHU216DAVISVP2,2013-11-16 12:41:00,
2013-11-16 06:46:00,52.3,50.0,29.96,South,182,3.0,9.0,92,0.00,,,0.00,WUHU216DAVISVP2,2013-11-16 12:46:00,
2013-11-16 06:51:00,52.2,49.9,29.96,SW,220,3.0,9.0,92,0.00,,,0.00,WUHU216DAVISVP2,2013-11-16 12:51:00,
2013-11-16 06:56:00,52.2,49.9,29.96,South,189,4.0,9.0,92,0.00,,,0.00,WUHU216DAVISVP2,2013-11-16 12:56:00,
2013-11-16 07:01:00,52.2,49.9,29.96,South,191,2.0,9.0,92,0.00,,,0.00,WUHU216DAVISVP2,2013-11-16 13:01:00,
2013-11-16 07:06:00,52.2,49.9,29.96,South,174,5.0,9.0,92,0.00,,,0.00,WUHU216DAVISVP2,2013-11-16 13:06:00,
2013-11-16 07:11:00,52.3,50.0,29.96,ESE,120,2.0,9.0,92,0.00,,,0.00,WUHU216DAVISVP2,2013-11-16 13:11:00,
2013-11-16 07:16:00,52.3,50.0,29.96,SSE,161,3.0,9.0,92,0.00,,,0.00,WUHU216DAVISVP2,2013-11-16 13:16:00,
2013-11-16 07:21:00,52.3,50.0,29.96,SSE,160,2.0,7.0,92,0.00,,,0.00,WUHU216DAVISVP2,2013-11-16 13:21:00,
2013-11-16 07:26:00,52.4,50.1,29.96,SE,141,3.0,7.0,92,0.00,,,0.00,WUHU216DAVISVP2,2013-11-16 13:26:00,
2013-11-16 07:31:00,52.5,50.2,29.96,SE,146,7.0,8.0,92,0.00,,,0.00,WUHU216DAVISVP2,2013-11-16 13:31:00,
2013-11-16 07:36:00,52.7,50.4,29.95,SSE,151,1.0,9.0,92,0.00,,,0.00,WUHU216DAVISVP2,2013-11-16 13:36:00,
2013-11-16 07:41:00,52.8,50.5,29.95,South,191,3.0,9.0,92,0.00,,,0.00,WUHU216DAVISVP2,2013-11-16 13:41:00,
2013-11-16 07:46:00,52.9,50.6,29.96,SSE,147,2.0,9.0,92,0.00,,,0.00,WUHU216DAVISVP2,2013-11-16 13:46:00,
2013-11-16 07:51:00,53.0,50.4,29.96,South,179,4.0,9.0,91,0.00,,,0.00,WUHU216DAVISVP2,2013-11-16 13:51:00,
2013-11-16 07:56:00,53.1,50.5,29.96,South,169,4.0,8.0,91,0.00,,,0.00,WUHU216DAVISVP2,2013-11-16 13:56:00,
2013-11-16 08:02:00,53.2,50.6,29.96,SSE,160,2.0,8.0,91,0.00,,,0.00,WUHU216DAVISVP2,2013-11-16 14:02:00,
2013-11-16 08:06:00,53.3,50.7,29.96,SSW,194,1.0,8.0,91,0.00,,,0.00,WUHU216DAVISVP2,2013-11-16 14:06:00,
2013-11-16 08:11:00,53.4,50.8,29.95,SE,144,2.0,8.0,91,0.00,,,0.00,WUHU216DAVISVP2,2013-11-16 14:11:00,
2013-11-16 08:16:00,53.5,50.9,29.95,SW,233,6.0,8.0,91,0.00,,,0.00,WUHU216DAVISVP2,2013-11-16 14:16:00,
2013-11-16 08:21:00,53.6,51.0,29.95,SSW,203,5.0,8.0,91,0.00,,,0.00,WUHU216DAVISVP2,2013-11-16 14:21:00,
2013-11-16 08:26:00,53.7,50.8,29.95,South,181,4.0,8.0,90,0.00,,,0.00,WUHU216DAVISVP2,2013-11-16 14:26:00,
2013-11-16 08:31:00,53.8,50.9,29.95,South,184,1.0,8.0,90,0.00,,,0.00,WUHU216DAVISVP2,2013-11-16 14:31:00,
2013-11-16 08:36:00,54.0,51.1,29.95,South,179,2.0,8.0,90,0.00,,,0.00,WUHU216DAVISVP2,2013-11-16 14:36:00,
2013-11-16 08:41:00,54.2,51.3,29.95,SSW,210,3.0,8.0,90,0.00,,,0.00,WUHU216DAVISVP2,2013-11-16 14:41:00,
2013-11-16 08:47:00,54.4,51.5,29.95,South,170,6.0,11.0,90,0.00,,,0.00,WUHU216DAVISVP2,2013-11-16 14:47:00,
2013-11-16 08:52:00,54.5,51.3,29.95,South,176,2.0,9.0,89,0.00,,,0.00,WUHU216DAVISVP2,2013-11-16 14:52:00,
2013-11-16 08:57:00,54.6,51.4,29.95,South,184,2.0,7.0,89,0.00,,,0.00,WUHU216DAVISVP2,2013-11-16 14:57:00,
2013-11-16 09:02:00,54.8,51.6,29.95,SSE,147,7.0,7.0,89,0.00,,,0.00,WUHU216DAVISVP2,2013-11-16 15:02:00,
2013-11-16 09:07:00,55.0,51.5,29.95,SSE,150,2.0,9.0,88,0.00,,,0.00,WUHU216DAVISVP2,2013-11-16 15:07:00,
2013-11-16 09:12:00,55.1,51.6,29.95,SSE,159,5.0,11.0,88,0.00,,,0.00,WUHU216DAVISVP2,2013-11-16 15:12:00,
2013-11-16 09:17:00,55.3,51.8,29.95,South,173,3.0,11.0,88,0.00,,,0.00,WUHU216DAVISVP2,2013-11-16 15:17:00,
2013-11-16 09:22:00,55.4,51.9,29.94,South,173,7.0,10.0,88,0.00,,,0.00,WUHU216DAVISVP2,2013-11-16 15:22:00,
2013-11-16 09:27:00,55.7,52.2,29.94,ESE,122,2.0,10.0,88,0.00,,,0.00,WUHU216DAVISVP2,2013-11-16 15:27:00,
2013-11-16 09:32:00,55.8,52.0,29.94,South,184,4.0,12.0,87,0.00,,,0.00,WUHU216DAVISVP2,2013-11-16 15:32:00,
2013-11-16 09:37:00,55.9,52.1,29.94,SSE,163,6.0,12.0,87,0.00,,,0.00,WUHU216DAVISVP2,2013-11-16 15:37:00,
2013-11-16 09:42:00,56.1,52.3,29.94,South,187,6.0,12.0,87,0.00,,,0.00,WUHU216DAVISVP2,2013-11-16 15:42:00,
2013-11-16 09:47:00,56.2,52.1,29.94,SSE,160,6.0,12.0,86,0.00,,,0.00,WUHU216DAVISVP2,2013-11-16 15:47:00,
2013-11-16 09:52:00,56.3,52.2,29.94,SSE,165,8.0,9.0,86,0.00,,,0.00,WUHU216DAVISVP2,2013-11-16 15:52:00,
2013-11-16 09:57:00,56.4,52.3,29.93,SSW,204,4.0,11.0,86,0.00,,,0.00,WUHU216DAVISVP2,2013-11-16 15:57:00,
2013-11-16 10:02:00,56.6,52.1,29.93,SSW,194,13.0,14.0,85,0.00,,,0.00,WUHU216DAVISVP2,2013-11-16 16:02:00,
2013-11-16 10:07:00,56.8,52.3,29.93,South,173,8.0,14.0,85,0.00,,,0.00,WUHU216DAVISVP2,2013-11-16 16:07:00,
2013-11-16 10:12:00,56.9,52.4,29.93,SSE,162,9.0,13.0,85,0.00,,,0.00,WUHU216DAVISVP2,2013-11-16 16:12:00,
2013-11-16 10:17:00,57.2,52.4,29.93,South,170,10.0,13.0,84,0.00,,,0.00,WUHU216DAVISVP2,2013-11-16 16:17:00,
2013-11-16 10:22:00,57.4,52.6,29.93,South,170,4.0,14.0,84,0.00,,,0.00,WUHU216DAVISVP2,2013-11-16 16:22:00,
2013-11-16 10:27:00,57.7,52.6,29.92,SSE,167,7.0,14.0,83,0.00,,,0.00,WUHU216DAVISVP2,2013-11-16 16:27:00,
2013-11-16 10:32:00,57.7,52.6,29.93,South,188,9.0,14.0,83,0.00,,,0.00,WUHU216DAVISVP2,2013-11-16 16:32:00,
2013-11-16 10:36:00,57.8,52.7,29.92,SSW,205,7.0,14.0,83,0.00,,,0.00,WUHU216DAVISVP2,2013-11-16 16:36:00,
2013-11-16 10:42:00,57.9,52.8,29.92,SSE,159,8.0,12.0,83,0.00,,,0.00,WUHU216DAVISVP2,2013-11-16 16:42:00,
2013-11-16 10:47:00,58.0,52.9,29.92,SSW,195,2.0,12.0,83,0.00,,,0.00,WUHU216DAVISVP2,2013-11-16 16:47:00,
2013-11-16 10:52:00,58.3,52.9,29.91,SSW,213,8.0,12.0,82,0.00,,,0.00,WUHU216DAVISVP2,2013-11-16 16:52:00,
2013-11-16 10:57:00,58.6,53.2,29.91,South,179,11.0,12.0,82,0.00,,,0.00,WUHU216DAVISVP2,2013-11-16 16:57:00,
2013-11-16 11:02:00,58.9,53.1,29.91,SSE,154,5.0,12.0,81,0.00,,,0.00,WUHU216DAVISVP2,2013-11-16 17:02:00,
2013-11-16 11:07:00,59.4,53.6,29.91,South,176,6.0,13.0,81,0.00,,,0.00,WUHU216DAVISVP2,2013-11-16 17:07:00,
2013-11-16 11:12:00,60.1,53.6,29.91,SW,219,12.0,18.0,79,0.00,,,0.00,WUHU216DAVISVP2,2013-11-16 17:12:00,
2013-11-16 11:17:00,60.3,53.8,29.91,South,174,15.0,18.0,79,0.00,,,0.00,WUHU216DAVISVP2,2013-11-16 17:17:00,
2013-11-16 11:22:00,60.5,53.7,29.91,SSW,203,9.0,18.0,78,0.00,,,0.00,WUHU216DAVISVP2,2013-11-16 17:22:00,
2013-11-16 11:27:00,60.8,54.0,29.90,SSE,150,9.0,18.0,78,0.00,,,0.00,WUHU216DAVISVP2,2013-11-16 17:27:00,
2013-11-16 11:32:00,61.2,54.0,29.91,South,180,11.0,18.0,77,0.00,,,0.00,WUHU216DAVISVP2,2013-11-16 17:32:00,
2013-11-16 11:37:00,61.2,53.9,29.90,South,191,15.0,17.0,77,0.00,,,0.00,WUHU216DAVISVP2,2013-11-16 17:37:00,
2013-11-16 11:42:00,61.3,54.0,29.90,SSE,152,14.0,17.0,77,0.00,,,0.00,WUHU216DAVISVP2,2013-11-16 17:42:00,
2013-11-16 11:47:00,61.2,53.9,29.90,South,177,9.0,17.0,77,0.00,,,0.00,WUHU216DAVISVP2,2013-11-16 17:47:00,
2013-11-16 11:52:00,61.2,53.9,29.89,SSE,154,7.0,17.0,77,0.00,,,0.00,WUHU216DAVISVP2,2013-11-16 17:52:00,
2013-11-16 11:57:00,61.1,54.3,29.88,SSE,164,11.0,16.0,78,0.00,,,0.00,WUHU216DAVISVP2,2013-11-16 17:57:00,
2013-11-16 12:02:00,61.2,54.0,29.87,SSE,156,8.0,16.0,77,0.00,,,0.00,WUHU216DAVISVP2,2013-11-16 18:02:00,
2013-11-16 12:07:00,61.6,54.4,29.88,SSE,148,7.0,14.0,77,0.00,,,0.00,WUHU216DAVISVP2,2013-11-16 18:07:00,
2013-11-16 12:12:00,61.8,54.6,29.87,South,173,8.0,15.0,77,0.00,,,0.00,WUHU216DAVISVP2,2013-11-16 18:12:00,
2013-11-16 12:17:00,61.9,54.7,29.87,South,174,8.0,18.0,77,0.00,,,0.00,WUHU216DAVISVP2,2013-11-16 18:17:00,
2013-11-16 12:22:00,61.9,54.7,29.87,South,170,8.0,18.0,77,0.00,,,0.00,WUHU216DAVISVP2,2013-11-16 18:22:00,
2013-11-16 12:27:00,62.0,55.1,29.87,SSW,209,9.0,17.0,78,0.00,,,0.00,WUHU216DAVISVP2,2013-11-16 18:27:00,
2013-11-16 12:32:00,61.9,55.0,29.86,SW,218,17.0,17.0,78,0.00,,,0.00,WUHU216DAVISVP2,2013-11-16 18:32:00,
2013-11-16 12:37:00,61.8,55.6,29.86,SSW,195,7.0,17.0,80,0.00,,,0.00,WUHU216DAVISVP2,2013-11-16 18:37:00,
2013-11-16 12:42:00,61.5,55.6,29.86,SSE,163,13.0,24.0,81,0.00,,,0.00,WUHU216DAVISVP2,2013-11-16 18:42:00,
2013-11-16 12:47:00,61.1,55.6,29.86,SSW,200,21.0,24.0,82,0.00,,,0.00,WUHU216DAVISVP2,2013-11-16 18:47:00,
2013-11-16 12:52:00,60.9,55.7,29.85,SSW,200,17.0,23.0,83,0.00,,,0.00,WUHU216DAVISVP2,2013-11-16 18:52:00,
2013-11-16 12:57:00,60.7,55.8,29.85,South,176,15.0,20.0,84,0.00,,,0.00,WUHU216DAVISVP2,2013-11-16 18:57:00,
2013-11-16 13:02:00,60.4,55.6,29.85,SSW,193,13.0,21.0,84,0.00,,,0.00,WUHU216DAVISVP2,2013-11-16 19:02:00,
2013-11-16 13:07:00,60.2,55.7,29.84,SSW,196,14.0,21.0,85,0.00,,,0.00,WUHU216DAVISVP2,2013-11-16 19:07:00,
2013-11-16 13:12:00,60.1,55.6,29.85,SSE,164,12.0,21.0,85,0.00,,,0.00,WUHU216DAVISVP2,2013-11-16 19:12:00,
2013-11-16 13:17:00,59.9,55.7,29.84,SSE,164,16.0,20.0,86,0.00,,,0.00,WUHU216DAVISVP2,2013-11-16 19:17:00,
2013-11-16 13:22:00,59.8,55.6,29.84,SSW,210,11.0,22.0,86,0.00,,,0.00,WUHU216DAVISVP2,2013-11-16 19:22:00,
2013-11-16 13:27:00,59.7,55.8,29.84,SSW,193,8.0,22.0,87,0.00,,,0.00,WUHU216DAVISVP2,2013-11-16 19:27:00,
2013-11-16 13:32:00,59.7,55.8,29.84,SSW,205,9.0,16.0,87,0.00,,,0.00,WUHU216DAVISVP2,2013-11-16 19:32:00,
2013-11-16 13:37:00,59.7,55.8,29.84,SW,215,10.0,16.0,87,0.00,,,0.00,WUHU216DAVISVP2,2013-11-16 19:37:00,
2013-11-16 13:42:00,59.8,55.9,29.84,SSW,198,13.0,16.0,87,0.00,,,0.00,WUHU216DAVISVP2,2013-11-16 19:42:00,
2013-11-16 13:47:00,59.7,56.1,29.84,SSW,198,10.0,17.0,88,0.00,,,0.00,WUHU216DAVISVP2,2013-11-16 19:47:00,
2013-11-16 13:52:00,59.7,55.8,29.84,SSE,162,6.0,17.0,87,0.00,,,0.00,WUHU216DAVISVP2,2013-11-16 19:52:00,
2013-11-16 13:57:00,59.7,56.1,29.84,SSE,165,7.0,15.0,88,0.00,,,0.00,WUHU216DAVISVP2,2013-11-16 19:57:00,
2013-11-16 14:02:00,59.7,56.1,29.84,SSE,161,7.0,15.0,88,0.00,,,0.00,WUHU216DAVISVP2,2013-11-16 20:02:00,
2013-11-16 14:07:00,59.7,56.1,29.84,South,177,5.0,13.0,88,0.00,,,0.00,WUHU216DAVISVP2,2013-11-16 20:07:00,
2013-11-16 14:12:00,59.8,56.2,29.83,SSE,167,7.0,13.0,88,0.00,,,0.00,WUHU216DAVISVP2,2013-11-16 20:12:00,
2013-11-16 14:17:00,59.9,56.3,29.83,SSE,162,7.0,15.0,88,0.00,,,0.00,WUHU216DAVISVP2,2013-11-16 20:17:00,
2013-11-16 14:22:00,59.9,56.6,29.83,SSW,206,6.0,15.0,89,0.00,,,0.00,WUHU216DAVISVP2,2013-11-16 20:22:00,
2013-11-16 14:27:00,60.0,56.7,29.83,South,181,13.0,13.0,89,0.00,,,0.00,WUHU216DAVISVP2,2013-11-16 20:27:00,
2013-11-16 14:32:00,60.0,56.7,29.83,South,185,9.0,14.0,89,0.00,,,0.00,WUHU216DAVISVP2,2013-11-16 20:32:00,
2013-11-16 14:37:00,60.1,56.8,29.83,South,172,9.0,14.0,89,0.00,,,0.00,WUHU216DAVISVP2,2013-11-16 20:37:00,
2013-11-16 14:42:00,60.1,56.8,29.83,South,187,9.0,15.0,89,0.00,,,0.00,WUHU216DAVISVP2,2013-11-16 20:42:00,
2013-11-16 14:47:00,60.2,56.9,29.83,South,177,9.0,15.0,89,0.00,,,0.00,WUHU216DAVISVP2,2013-11-16 20:47:00,
2013-11-16 14:52:00,60.2,56.9,29.83,SSW,196,7.0,10.0,89,0.00,,,0.00,WUHU216DAVISVP2,2013-11-16 20:52:00,
2013-11-16 14:57:00,60.2,56.9,29.83,SSW,200,15.0,15.0,89,0.00,,,0.00,WUHU216DAVISVP2,2013-11-16 20:57:00,
2013-11-16 15:02:00,60.1,57.1,29.83,SW,217,9.0,15.0,90,0.00,,,0.00,WUHU216DAVISVP2,2013-11-16 21:02:00,
2013-11-16 15:07:00,60.1,57.1,29.83,SSW,202,7.0,12.0,90,0.00,,,0.00,WUHU216DAVISVP2,2013-11-16 21:07:00,
2013-11-16 15:12:00,60.1,57.1,29.82,South,184,7.0,12.0,90,0.00,,,0.00,WUHU216DAVISVP2,2013-11-16 21:12:00,
2013-11-16 15:17:00,60.1,57.1,29.82,SSE,164,4.0,11.0,90,0.00,,,0.00,WUHU216DAVISVP2,2013-11-16 21:17:00,
2013-11-16 15:22:00,60.1,57.2,29.82,SSE,163,6.0,7.0,90,0.00,,,0.00,WUHU216DAVISVP2,2013-11-16 21:22:00,
2013-11-16 15:27:00,60.1,57.1,29.82,SSE,168,6.0,9.0,90,0.00,,,0.00,WUHU216DAVISVP2,2013-11-16 21:27:00,
2013-11-16 15:32:00,60.0,57.0,29.81,South,187,9.0,10.0,90,0.00,,,0.00,WUHU216DAVISVP2,2013-11-16 21:32:00,
2013-11-16 15:37:00,60.0,57.3,29.81,SSE,162,5.0,10.0,91,0.00,,,0.00,WUHU216DAVISVP2,2013-11-16 21:37:00,
2013-11-16 15:42:00,60.0,57.3,29.80,South,169,6.0,8.0,91,0.00,,,0.00,WUHU216DAVISVP2,2013-11-16 21:42:00,
2013-11-16 15:47:00,60.0,57.3,29.80,South,171,3.0,8.0,91,0.00,,,0.00,WUHU216DAVISVP2,2013-11-16 21:47:00,
2013-11-16 15:52:00,60.1,57.4,29.80,SSE,167,4.0,9.0,91,0.00,,,0.00,WUHU216DAVISVP2,2013-11-16 21:52:00,
2013-11-16 15:57:00,60.2,57.2,29.80,SSE,163,3.0,9.0,90,0.00,,,0.00,WUHU216DAVISVP2,2013-11-16 21:57:00,
2013-11-16 16:02:00,60.3,57.3,29.79,South,191,6.0,7.0,90,0.00,,,0.00,WUHU216DAVISVP2,2013-11-16 22:02:00,
2013-11-16 16:07:00,60.4,57.4,29.79,SSW,206,2.0,8.0,90,0.00,,,0.00,WUHU216DAVISVP2,2013-11-16 22:07:00,
2013-11-16 16:12:00,60.6,57.3,29.78,SSW,193,8.0,8.0,89,0.00,,,0.00,WUHU216DAVISVP2,2013-11-16 22:12:00,
2013-11-16 16:17:00,60.7,57.4,29.78,SSE,153,5.0,8.0,89,0.00,,,0.00,WUHU216DAVISVP2,2013-11-16 22:17:00,
2013-11-16 16:22:00,60.7,57.4,29.78,SSE,153,5.0,7.0,89,0.00,,,0.00,WUHU216DAVISVP2,2013-11-16 22:22:00,
2013-11-16 16:27:00,60.9,57.6,29.79,SSE,156,6.0,9.0,89,0.00,,,0.00,WUHU216DAVISVP2,2013-11-16 22:27:00,
2013-11-16 16:32:00,60.9,57.6,29.79,SSE,156,6.0,9.0,89,0.00,,,0.00,WUHU216DAVISVP2,2013-11-16 22:32:00,
2013-11-16 16:37:00,61.2,57.6,29.77,SSE,149,7.0,7.0,88,0.00,,,0.00,WUHU216DAVISVP2,2013-11-16 22:37:00,
2013-11-16 16:42:00,61.2,57.6,29.77,SSW,210,3.0,9.0,88,0.00,,,0.00,WUHU216DAVISVP2,2013-11-16 22:42:00,
2013-11-16 16:47:00,61.3,57.7,29.75,SSE,149,5.0,9.0,88,0.00,,,0.00,WUHU216DAVISVP2,2013-11-16 22:47:00,
2013-11-16 16:52:00,61.4,57.8,29.76,SSE,152,6.0,9.0,88,0.00,,,0.00,WUHU216DAVISVP2,2013-11-16 22:52:00,
2013-11-16 16:57:00,61.5,57.9,29.76,SSE,162,4.0,12.0,88,0.00,,,0.00,WUHU216DAVISVP2,2013-11-16 22:57:00,
2013-11-16 17:02:00,61.6,57.7,29.76,SSW,193,4.0,12.0,87,0.00,,,0.00,WUHU216DAVISVP2,2013-11-16 23:02:00,
2013-11-16 17:07:00,61.8,57.9,29.77,South,169,6.0,12.0,87,0.00,,,0.00,WUHU216DAVISVP2,2013-11-16 23:07:00,
2013-11-16 17:12:00,61.9,58.0,29.76,SSE,155,3.0,13.0,87,0.00,,,0.00,WUHU216DAVISVP2,2013-11-16 23:12:00,
2013-11-16 17:17:00,62.0,58.1,29.76,South,176,7.0,13.0,87,0.00,,,0.00,WUHU216DAVISVP2,2013-11-16 23:17:00,
2013-11-16 17:22:00,62.1,58.2,29.77,South,172,1.0,10.0,87,0.00,,,0.00,WUHU216DAVISVP2,2013-11-16 23:22:00,
2013-11-16 17:27:00,62.1,58.2,29.77,SSE,153,5.0,13.0,87,0.00,,,0.00,WUHU216DAVISVP2,2013-11-16 23:27:00,
2013-11-16 17:32:00,62.1,57.9,29.77,SSE,159,8.0,13.0,86,0.00,,,0.00,WUHU216DAVISVP2,2013-11-16 23:32:00,
2013-11-16 17:37:00,62.1,57.9,29.77,SSE,168,11.0,11.0,86,0.00,,,0.00,WUHU216DAVISVP2,2013-11-16 23:37:00,
2013-11-16 17:42:00,62.3,58.1,29.77,SSW,196,6.0,14.0,86,0.00,,,0.00,WUHU216DAVISVP2,2013-11-16 23:42:00,
2013-11-16 17:47:00,62.4,58.2,29.76,SSE,151,4.0,15.0,86,0.00,,,0.00,WUHU216DAVISVP2,2013-11-16 23:47:00,
2013-11-16 17:59:00,62.6,58.4,29.75,SSE,167,8.0,15.0,86,0.00,,,0.00,WUHU216DAVISVP2,2013-11-16 23:59:00,
2013-11-16 18:04:00,62.6,58.4,29.75,SSE,167,12.0,13.0,86,0.00,,,0.00,WUHU216DAVISVP2,2013-11-17 00:04:00,
2013-11-16 18:09:00,62.6,58.4,29.76,SSE,156,8.0,12.0,86,0.00,,,0.00,WUHU216DAVISVP2,2013-11-17 00:09:00,
2013-11-16 18:14:00,62.6,58.4,29.76,South,188,2.0,12.0,86,0.00,,,0.00,WUHU216DAVISVP2,2013-11-17 00:14:00,
2013-11-16 18:19:00,62.7,58.5,29.76,SW,216,5.0,14.0,86,0.00,,,0.00,WUHU216DAVISVP2,2013-11-17 00:19:00,
2013-11-16 18:24:00,62.7,58.5,29.76,South,174,8.0,14.0,86,0.00,,,0.00,WUHU216DAVISVP2,2013-11-17 00:24:00,
2013-11-16 18:29:00,62.8,58.9,29.76,South,179,6.0,12.0,87,0.00,,,0.00,WUHU216DAVISVP2,2013-11-17 00:29:00,
2013-11-16 18:34:00,62.8,58.9,29.76,South,172,11.0,15.0,87,0.00,,,0.00,WUHU216DAVISVP2,2013-11-17 00:34:00,
2013-11-16 18:39:00,62.8,58.9,29.76,South,169,11.0,16.0,87,0.00,,,0.00,WUHU216DAVISVP2,2013-11-17 00:39:00,
2013-11-16 18:44:00,63.0,59.1,29.75,South,181,9.0,17.0,87,0.00,,,0.00,WUHU216DAVISVP2,2013-11-17 00:44:00,
2013-11-16 18:49:00,63.0,59.1,29.76,South,173,10.0,17.0,87,0.00,,,0.00,WUHU216DAVISVP2,2013-11-17 00:49:00,
2013-11-16 18:54:00,62.9,59.0,29.77,SSW,203,9.0,16.0,87,0.00,,,0.00,WUHU216DAVISVP2,2013-11-17 00:54:00,
2013-11-16 18:59:00,63.1,59.2,29.76,South,169,5.0,14.0,87,0.00,,,0.00,WUHU216DAVISVP2,2013-11-17 00:59:00,
2013-11-16 19:04:00,63.3,59.4,29.77,South,171,7.0,13.0,87,0.00,,,0.00,WUHU216DAVISVP2,2013-11-17 01:04:00,
2013-11-16 19:09:00,63.3,59.4,29.76,South,174,3.0,11.0,87,0.00,,,0.00,WUHU216DAVISVP2,2013-11-17 01:09:00,
2013-11-16 19:14:00,63.3,59.4,29.77,South,181,7.0,9.0,87,0.00,,,0.00,WUHU216DAVISVP2,2013-11-17 01:14:00,
2013-11-16 19:19:00,63.3,59.4,29.76,South,188,3.0,9.0,87,0.00,,,0.00,WUHU216DAVISVP2,2013-11-17 01:19:00,
2013-11-16 19:24:00,63.3,59.4,29.75,SSE,165,3.0,10.0,87,0.00,,,0.00,WUHU216DAVISVP2,2013-11-17 01:24:00,
2013-11-16 19:29:00,63.3,59.4,29.75,SSW,203,8.0,10.0,87,0.00,,,0.00,WUHU216DAVISVP2,2013-11-17 01:29:00,
2013-11-16 19:34:00,63.4,59.5,29.75,SSE,158,5.0,10.0,87,0.00,,,0.00,WUHU216DAVISVP2,2013-11-17 01:34:00,
2013-11-16 19:39:00,63.5,59.6,29.75,SSE,162,8.0,11.0,87,0.00,,,0.00,WUHU216DAVISVP2,2013-11-17 01:39:00,
2013-11-16 19:44:00,63.7,59.8,29.75,SSE,160,9.0,11.0,87,0.00,,,0.00,WUHU216DAVISVP2,2013-11-17 01:44:00,
2013-11-16 19:49:00,63.9,59.6,29.75,SW,229,7.0,12.0,86,0.00,,,0.00,WUHU216DAVISVP2,2013-11-17 01:49:00,
2013-11-16 19:54:00,64.1,59.8,29.75,SSW,201,8.0,13.0,86,0.00,,,0.00,WUHU216DAVISVP2,2013-11-17 01:54:00,
2013-11-16 19:59:00,64.3,59.7,29.75,SSW,202,13.0,18.0,85,0.00,,,0.00,WUHU216DAVISVP2,2013-11-17 01:59:00,
2013-11-16 20:04:00,64.5,59.9,29.75,South,179,11.0,18.0,85,0.00,,,0.00,WUHU216DAVISVP2,2013-11-17 02:04:00,
2013-11-16 20:09:00,64.5,59.9,29.75,SSW,205,9.0,16.0,85,0.00,,,0.00,WUHU216DAVISVP2,2013-11-17 02:09:00,
2013-11-16 20:14:00,64.7,60.1,29.74,South,181,9.0,19.0,85,0.00,,,0.00,WUHU216DAVISVP2,2013-11-17 02:14:00,
2013-11-16 20:19:00,64.9,60.3,29.74,South,176,7.0,19.0,85,0.00,,,0.00,WUHU216DAVISVP2,2013-11-17 02:19:00,
2013-11-16 20:24:00,64.9,60.3,29.74,South,191,10.0,20.0,85,0.00,,,0.00,WUHU216DAVISVP2,2013-11-17 02:24:00,
2013-11-16 20:29:00,64.9,60.3,29.74,SSE,162,8.0,20.0,85,0.00,,,0.00,WUHU216DAVISVP2,2013-11-17 02:29:00,
2013-11-16 20:34:00,65.0,60.4,29.74,SSW,208,10.0,22.0,85,0.00,,,0.00,WUHU216DAVISVP2,2013-11-17 02:34:00,
2013-11-16 20:39:00,65.0,60.4,29.75,SW,218,21.0,25.0,85,0.00,,,0.00,WUHU216DAVISVP2,2013-11-17 02:39:00,
2013-11-16 20:44:00,65.2,60.9,29.74,South,176,13.0,25.0,86,0.00,,,0.00,WUHU216DAVISVP2,2013-11-17 02:44:00,
2013-11-16 20:49:00,65.2,60.9,29.74,SSW,202,17.0,25.0,86,0.00,,,0.00,WUHU216DAVISVP2,2013-11-17 02:49:00,
2013-11-16 20:54:00,65.3,61.0,29.74,SSW,202,13.0,25.0,86,0.00,,,0.00,WUHU216DAVISVP2,2013-11-17 02:54:00,
2013-11-16 20:59:00,65.4,61.1,29.74,SSW,203,16.0,23.0,86,0.00,,,0.00,WUHU216DAVISVP2,2013-11-17 02:59:00,
2013-11-16 21:04:00,65.4,61.1,29.74,South,188,17.0,24.0,86,0.00,,,0.00,WUHU216DAVISVP2,2013-11-17 03:04:00,
2013-11-16 21:09:00,65.4,61.1,29.73,South,179,9.0,25.0,86,0.00,,,0.00,WUHU216DAVISVP2,2013-11-17 03:09:00,
2013-11-16 21:14:00,65.6,61.3,29.73,South,173,16.0,26.0,86,0.00,,,0.00,WUHU216DAVISVP2,2013-11-17 03:14:00,
2013-11-16 21:19:00,65.6,61.3,29.73,SSW,201,14.0,26.0,86,0.00,,,0.00,WUHU216DAVISVP2,2013-11-17 03:19:00,
2013-11-16 21:24:00,65.6,61.6,29.72,South,172,11.0,23.0,87,0.00,,,0.00,WUHU216DAVISVP2,2013-11-17 03:24:00,
2013-11-16 21:29:00,65.6,61.6,29.72,SW,216,12.0,22.0,87,0.00,,,0.00,WUHU216DAVISVP2,2013-11-17 03:29:00,
2013-11-16 21:34:00,65.7,61.7,29.72,South,180,13.0,23.0,87,0.00,,,0.00,WUHU216DAVISVP2,2013-11-17 03:34:00,
2013-11-16 21:39:00,65.9,61.9,29.72,SSW,193,12.0,24.0,87,0.00,,,0.00,WUHU216DAVISVP2,2013-11-17 03:39:00,
2013-11-16 21:44:00,65.8,61.8,29.73,SSW,202,14.0,24.0,87,0.00,,,0.00,WUHU216DAVISVP2,2013-11-17 03:44:00,
2013-11-16 21:49:00,65.9,61.9,29.72,SSW,207,9.0,21.0,87,0.00,,,0.00,WUHU216DAVISVP2,2013-11-17 03:49:00,
2013-11-16 21:54:00,65.9,61.9,29.73,South,179,17.0,27.0,87,0.00,,,0.00,WUHU216DAVISVP2,2013-11-17 03:54:00,
2013-11-16 21:59:00,65.8,62.1,29.73,South,170,14.0,27.0,88,0.00,,,0.00,WUHU216DAVISVP2,2013-11-17 03:59:00,
2013-11-16 22:04:00,65.5,62.2,29.73,SSW,195,10.0,25.0,89,0.00,,,0.00,WUHU216DAVISVP2,2013-11-17 04:04:00,
2013-11-16 22:09:00,65.5,62.2,29.73,SSW,203,7.0,22.0,89,0.00,,,0.00,WUHU216DAVISVP2,2013-11-17 04:09:00,
2013-11-16 22:14:00,65.4,62.1,29.73,SSW,212,14.0,16.0,89,0.00,,,0.00,WUHU216DAVISVP2,2013-11-17 04:14:00,
2013-11-16 22:19:00,65.6,62.3,29.73,SW,233,16.0,19.0,89,0.00,,,0.00,WUHU216DAVISVP2,2013-11-17 04:19:00,
2013-11-16 22:24:00,65.6,62.3,29.73,SW,224,15.0,27.0,89,0.00,,,0.00,WUHU216DAVISVP2,2013-11-17 04:24:00,
2013-11-16 22:29:00,65.6,62.6,29.72,SW,215,11.0,27.0,90,0.00,,,0.00,WUHU216DAVISVP2,2013-11-17 04:29:00,
2013-11-16 22:34:00,65.6,62.6,29.72,SSW,195,11.0,22.0,90,0.00,,,0.00,WUHU216DAVISVP2,2013-11-17 04:34:00,
2013-11-16 22:39:00,65.5,62.5,29.72,SSW,205,10.0,22.0,90,0.00,,,0.00,WUHU216DAVISVP2,2013-11-17 04:39:00,
2013-11-16 22:44:00,65.2,62.5,29.72,South,186,9.0,19.0,91,0.01,,,0.01,WUHU216DAVISVP2,2013-11-17 04:44:00,
2013-11-16 22:49:00,65.0,62.6,29.72,South,186,13.0,18.0,92,0.02,,,0.02,WUHU216DAVISVP2,2013-11-17 04:49:00,
2013-11-16 22:54:00,64.9,62.5,29.72,SW,220,13.0,18.0,92,0.02,,,0.02,WUHU216DAVISVP2,2013-11-17 04:54:00,
2013-11-16 22:59:00,64.8,62.4,29.72,South,186,13.0,18.0,92,0.02,,,0.02,WUHU216DAVISVP2,2013-11-17 04:59:00,
2013-11-16 23:01:00,64.8,62.4,29.71,SSW,205,9.0,17.0,92,0.02,,,0.02,WUHU216DAVISVP2,2013-11-17 05:01:00,
2013-11-16 23:06:00,64.8,62.4,29.71,SE,146,8.0,18.0,92,0.02,,,0.02,WUHU216DAVISVP2,2013-11-17 05:06:00,
2013-11-16 23:11:00,64.8,62.4,29.71,South,185,8.0,18.0,92,0.02,,,0.02,WUHU216DAVISVP2,2013-11-17 05:11:00,
2013-11-16 23:16:00,64.8,62.4,29.71,SSW,200,7.0,12.0,92,0.02,,,0.02,WUHU216DAVISVP2,2013-11-17 05:16:00,
2013-11-16 23:21:00,64.7,62.3,29.71,SSW,212,8.0,12.0,92,0.02,,,0.02,WUHU216DAVISVP2,2013-11-17 05:21:00,
2013-11-16 23:26:00,64.5,62.1,29.71,SSW,198,4.0,9.0,92,0.02,,,0.02,WUHU216DAVISVP2,2013-11-17 05:26:00,
2013-11-16 23:31:00,64.4,62.3,29.71,SSE,161,10.0,16.0,93,0.06,,,0.06,WUHU216DAVISVP2,2013-11-17 05:31:00,
2013-11-16 23:36:00,64.4,62.3,29.71,SSW,199,9.0,18.0,93,0.06,,,0.06,WUHU216DAVISVP2,2013-11-17 05:36:00,
2013-11-16 23:41:00,64.5,62.4,29.72,SSW,195,9.0,18.0,93,0.06,,,0.06,WUHU216DAVISVP2,2013-11-17 05:41:00,
2013-11-16 23:46:00,64.6,62.5,29.71,SSW,207,11.0,16.0,93,0.04,,,0.06,WUHU216DAVISVP2,2013-11-17 05:46:00,
2013-11-16 23:51:00,64.9,62.8,29.72,SSW,203,15.0,24.0,93,0.04,,,0.06,WUHU216DAVISVP2,2013-11-17 05:51:00,
2013-11-16 23:56:00,65.1,63.0,29.71,South,181,12.0,24.0,93,0.04,,,0.06,WUHU216DAVISVP2,2013-11-17 05:56:00,